[[{"header":{"parameterUnit":"m.s-1","parameterCategory":2,"la1":30.2991,"la2":30.254,"lo1":-89.0895,"lo2":-89.0444,"dy":0.0017,"dx":0.0017,"nx":28,"ny":28,"refTime":"2024-05-09T21:00:00:Z","depth":"0","parameterNumber":2,"parameterNumberName":"U-component_of_CURRENTS"},"data":[0,0,0,0,0,0,0,0,0,0,0,0,0,0,0,0,0,0,0,0,0,0,0,0,0,0,0,0,0,0,0,0,0,0,0,0,0,0,0,0,0,0,0,0,0,0,0,0,0,0,0,0,0,0,0,0,0,0,-0.2551,-0.2551,0,-0.2565,-0.2565,-0.2565,-0.2545,-0.2544,-0.2544,-0.2543,-0.2509,-0.2509,-0.2508,0,0,0,0,0,0,0,0,0,0,0,0,0,-0.251,-0.2511,-0.2551,-0.2551,-0.2552,-0.2565,-0.2565,-0.2565,-0.2545,-0.2544,-0.2544,-0.2543,-0.2509,-0.2509,-0.2508,0,0,0,0,0,0,0,0,0,0,0,0,0,-0.2525,-0.2511,-0.2551,-0.2545,-0.2544,-0.2565,-0.2565,-0.2565,-0.2545,-0.2544,-0.2543,-0.2543,-0.2509,-0.2509,-0.2508,-0.2521,0,0,-0.2507,-0.2506,0,0,0,0,0,0,0,0,-0.2524,-0.2526,-0.2545,-0.2545,-0.2545,-0.2554,-0.2539,-0.2549,-0.2545,-0.2543,-0.2543,-0.2542,-0.2522,-0.252,-0.2522,-0.252,-0.2518,-0.2506,-0.2506,-0.2506,-0.2506,0,0,0,0,0,0,0,-0.2523,-0.2525,-0.2555,-0.2546,-0.2546,-0.2543,-0.2543,-0.2541,-0.2534,-0.2543,-0.2542,-0.2547,-0.2521,-0.2523,-0.2521,-0.2518,-0.2506,-0.2506,-0.2506,-0.2505,-0.2494,-0.2494,0,0,0,0,0,0,-0.2526,-0.2525,-0.2554,-0.2555,-0.2534,-0.2544,-0.2545,-0.255,-0.2535,-0.2533,-0.2548,-0.2546,-0.2525,-0.2522,-0.252,-0.2539,-0.2506,-0.2505,-0.2505,-0.2493,-0.2494,-0.2494,0,0,0,0,0,0,-0.2525,-0.2529,-0.2554,-0.2542,-0.2545,-0.2546,-0.2552,-0.2551,-0.2551,-0.254,-0.2536,-0.2548,-0.2524,-0.2521,-0.2514,-0.2537,-0.2505,-0.2505,-0.2493,-0.2494,-0.2494,-0.2573,0,0,0,0,0,0,-0.2524,-0.2528,-0.2531,-0.2542,-0.2546,-0.2569,-0.2553,-0.2552,-0.2556,-0.2554,-0.2539,-0.2535,-0.2523,-0.2515,-0.2514,-0.2536,-0.2504,-0.2493,-0.2493,-0.2494,-0.2571,-0.2576,-0.2581,0,0,0,0,0,-0.2522,-0.2536,-0.2531,-0.2534,-0.255,-0.257,-0.2572,-0.2568,-0.2557,-0.2563,-0.2547,-0.2535,-0.2514,-0.2515,-0.2513,-0.2536,-0.2493,-0.2493,-0.2494,-0.2568,-0.2575,-0.2581,0,0,0,0,0,0,-0.2525,-0.2536,-0.253,-0.2547,-0.2557,-0.2567,-0.2574,-0.2571,-0.2565,-0.2558,-0.2541,-0.2536,-0.2542,-0.252,-0.2521,-0.2528,-0.25,-0.25,-0.2558,-0.2564,-0.2569,-0.2573,-0.2504,0,0,0,0,0,-0.2526,-0.2532,-0.2546,-0.2557,-0.2564,-0.2567,-0.2573,-0.2573,-0.2572,-0.2569,-0.2557,-0.2541,-0.2543,-0.2537,-0.253,-0.2535,-0.2485,-0.2543,-0.2548,-0.2553,-0.2552,-0.2505,-0.2506,-0.2494,-0.2494,-0.2494,0,0,-0.2529,-0.2536,-0.2539,-0.2557,-0.2562,-0.259,-0.2568,-0.2582,-0.2604,-0.2566,-0.2579,-0.2563,-0.2548,-0.2558,-0.2557,-0.254,-0.2524,-0.2553,-0.2558,-0.2554,-0.2505,-0.2506,-0.2507,-0.2494,-0.2494,-0.2494,0,0,-0.2549,-0.2546,-0.2562,-0.2577,-0.2591,-0.26,-0.2606,-0.2615,-0.2615,-0.2628,-0.2608,-0.2596,-0.2596,-0.2587,-0.2586,-0.2609,-0.2557,-0.2608,-0.2638,-0.2593,-0.2593,-0.2593,-0.251,-0.2502,-0.2607,-0.2607,-0.2607,0,-0.2554,-0.2573,-0.257,-0.2598,-0.2612,-0.2609,-0.2637,-0.2651,-0.2655,-0.2646,-0.2638,-0.2623,-0.2612,-0.2622,-0.2636,-0.2624,-0.2574,-0.2624,-0.2601,-0.26,-0.2598,-0.2513,-0.2503,-0.2611,-0.261,-0.261,-0.2609,0,-0.2588,-0.2607,-0.262,-0.2651,-0.2669,-0.269,-0.2711,-0.2716,-0.2711,-0.2711,-0.2707,-0.269,-0.2669,-0.2677,-0.2672,-0.2665,-0.2623,-0.2619,-0.259,-0.2605,-0.2513,-0.2501,-0.2616,-0.2615,-0.2614,-0.2613,0,0,-0.2578,-0.2633,-0.2635,-0.2648,-0.2694,-0.2703,-0.2747,-0.2762,-0.2758,-0.2767,-0.2751,-0.2773,-0.2738,-0.2732,-0.2716,-0.2691,-0.2643,-0.266,-0.2655,-0.2585,-0.251,-0.2385,-0.236,-0.2639,-0.2638,-0.2638,-0.2442,0,-0.2599,-0.2648,-0.2677,-0.2718,-0.2738,-0.2757,-0.279,-0.2802,-0.2798,-0.278,-0.2769,-0.275,-0.2769,-0.2744,-0.2732,-0.2666,-0.2619,-0.2694,-0.2499,-0.2492,-0.2387,-0.2346,-0.2249,-0.2058,-0.243,-0.2428,-0.2427,0,-0.2606,-0.2637,-0.2682,-0.2722,-0.2732,-0.2761,-0.2768,-0.2796,-0.2792,-0.278,-0.277,-0.2748,-0.2727,-0.2726,-0.2634,-0.2681,-0.26,-0.2549,-0.2539,-0.2388,-0.2346,-0.2106,-0.2023,-0.2014,-0.2408,-0.241,-0.2411,0,-0.2551,-0.2626,-0.2652,-0.2672,-0.2732,-0.2741,-0.2765,-0.2778,-0.2769,-0.2759,-0.2727,-0.2718,-0.2673,-0.2618,-0.253,-0.2572,-0.2394,-0.2427,-0.2232,-0.222,-0.2079,-0.2057,-0.197,-0.2334,-0.2334,-0.2335,-0.2335,0,-0.2532,-0.2543,-0.2625,-0.263,-0.2637,-0.2701,-0.2687,-0.2706,-0.271,-0.2673,-0.2707,-0.2658,-0.2646,-0.2554,-0.2493,-0.2307,-0.2352,-0.2211,-0.2159,-0.2099,-0.2082,-0.2021,-0.2065,-0.2327,-0.2329,-0.233,-0.2332,0,-0.2437,-0.2503,-0.2519,-0.2589,-0.2602,-0.2595,-0.2621,-0.2606,-0.2636,-0.2584,-0.2574,-0.2577,-0.2457,-0.2399,-0.2269,-0.2215,-0.2018,-0.199,-0.1902,-0.1843,-0.167,-0.1721,-0.1565,-0.1517,-0.1744,-0.1739,-0.1736,0,-0.2384,-0.2391,-0.245,-0.2445,-0.2466,-0.2477,-0.2473,-0.2535,-0.2519,-0.2516,-0.2473,-0.2382,-0.2278,-0.2049,-0.1923,-0.1738,-0.1798,-0.1561,-0.1633,-0.1617,-0.1638,-0.1706,-0.1685,-0.1466,-0.146,-0.1456,-0.1452,0,-0.2266,-0.2291,-0.2301,-0.2297,-0.2298,-0.2301,-0.2311,-0.2293,-0.235,-0.2317,-0.2245,-0.217,-0.1971,-0.1752,-0.1542,-0.1444,-0.1533,-0.1459,-0.1475,-0.1427,-0.1462,-0.1405,-0.1628,-0.1412,-0.1416,-0.1419,-0.1421,-0.1423,-0.2147,-0.2121,-0.2134,-0.2116,-0.2125,-0.2104,-0.2046,-0.2077,-0.203,-0.195,-0.1982,-0.1807,-0.1659,-0.1345,-0.1244,-0.1062,-0.1177,-0.1044,-0.1105,-0.1173,-0.1142,-0.1252,-0.0969,-0.0971,-0.0972,-0.0973,-0.0974,0,-0.1976,-0.1963,-0.1947,-0.1922,-0.1874,-0.1933,-0.191,-0.1833,-0.1735,-0.1689,-0.1588,-0.1355,-0.1149,-0.1037,-0.0846,-0.0763,-0.0792,-0.0754,-0.0866,-0.086,-0.0956,-0.096,-0.0624,-0.0624,-0.0624,-0.0624,-0.0624,-0.0624,-0.1875,-0.1796,-0.1799,-0.1672,-0.1656,-0.1534,-0.1488,-0.1415,-0.1351,-0.1144,-0.1001,-0.091,-0.0856,-0.0836,-0.0717,-0.0664,-0.0701,-0.0643,-0.0704,-0.0829,-0.0864,-0.0897,-0.0911,-0.057,-0.0571,-0.0572,-0.0573,-0.0573]},{"header":{"parameterUnit":"m.s-1","parameterCategory":2,"la1":30.2991,"la2":30.254,"lo1":-89.0895,"lo2":-89.0444,"dy":0.0017,"dx":0.0017,"nx":28,"ny":28,"refTime":"2024-05-09T21:00:00:Z","depth":"0","parameterNumber":3,"parameterNumberName":"V-component_of_CURRENTS"},"data":[0,0,0,0,0,0,0,0,0,0,0,0,0,0,0,0,0,0,0,0,0,0,0,0,0,0,0,0,0,0,0,0,0,0,0,0,0,0,0,0,0,0,0,0,0,0,0,0,0,0,0,0,0,0,0,0,0,0,-0.0587,-0.0587,0,-0.0543,-0.0542,-0.0542,-0.0507,-0.0507,-0.0507,-0.0506,-0.0397,-0.0395,-0.0392,0,0,0,0,0,0,0,0,0,0,0,0,0,-0.0602,-0.0602,-0.0587,-0.0587,-0.0586,-0.0543,-0.0542,-0.0542,-0.0507,-0.0507,-0.0506,-0.0506,-0.0398,-0.0395,-0.0392,0,0,0,0,0,0,0,0,0,0,0,0,0,-0.058,-0.0602,-0.0587,-0.0565,-0.0562,-0.0543,-0.0542,-0.0541,-0.0507,-0.0507,-0.0506,-0.0506,-0.0399,-0.0395,-0.0391,-0.0374,0,0,-0.0379,-0.0377,0,0,0,0,0,0,0,0,-0.0581,-0.0579,-0.0568,-0.0566,-0.0563,-0.0531,-0.0508,-0.0483,-0.0507,-0.0527,-0.0506,-0.0506,-0.0437,-0.043,-0.0422,-0.0369,-0.0364,-0.0379,-0.0376,-0.0374,-0.0373,0,0,0,0,0,0,0,-0.0583,-0.0581,-0.0569,-0.0568,-0.0565,-0.0543,-0.054,-0.0503,-0.0483,-0.0525,-0.0523,-0.052,-0.0435,-0.0426,-0.0419,-0.0363,-0.0379,-0.0375,-0.0373,-0.0371,-0.0291,-0.0291,0,0,0,0,0,0,-0.0593,-0.0582,-0.057,-0.0567,-0.0573,-0.0543,-0.0539,-0.0541,-0.0484,-0.0476,-0.052,-0.0518,-0.0433,-0.0423,-0.0415,-0.0415,-0.0374,-0.0371,-0.0368,-0.029,-0.0291,-0.0291,0,0,0,0,0,0,-0.0593,-0.0592,-0.0572,-0.0574,-0.057,-0.0544,-0.0545,-0.054,-0.0533,-0.0481,-0.0471,-0.0518,-0.0432,-0.042,-0.0389,-0.0409,-0.0369,-0.0365,-0.029,-0.029,-0.0291,-0.04,0,0,0,0,0,0,-0.0594,-0.0593,-0.0599,-0.0575,-0.0571,-0.057,-0.0546,-0.054,-0.0532,-0.0529,-0.0476,-0.0466,-0.0431,-0.0395,-0.0385,-0.0403,-0.0362,-0.029,-0.029,-0.0291,-0.0396,-0.0404,-0.0411,0,0,0,0,0,-0.0595,-0.0611,-0.06,-0.0598,-0.058,-0.0571,-0.0567,-0.0545,-0.0532,-0.0535,-0.0499,-0.0467,-0.0391,-0.0392,-0.038,-0.0398,-0.0289,-0.029,-0.0291,-0.0392,-0.0402,-0.041,0,0,0,0,0,0,-0.0623,-0.0608,-0.0596,-0.0607,-0.0592,-0.0565,-0.0568,-0.055,-0.0525,-0.0521,-0.047,-0.0457,-0.0438,-0.0397,-0.04,-0.0374,-0.0335,-0.0333,-0.0417,-0.0425,-0.0432,-0.0467,-0.0359,0,0,0,0,0,-0.0632,-0.0639,-0.0618,-0.0626,-0.0622,-0.0594,-0.0588,-0.0574,-0.0548,-0.0537,-0.0499,-0.0459,-0.0431,-0.0412,-0.0377,-0.0361,-0.0296,-0.0362,-0.037,-0.0377,-0.0395,-0.0318,-0.032,-0.0293,-0.0293,-0.0293,0,0,-0.0647,-0.0638,-0.0642,-0.0632,-0.0619,-0.0632,-0.059,-0.0587,-0.06,-0.0528,-0.0527,-0.0482,-0.0431,-0.0419,-0.0407,-0.0388,-0.0343,-0.0377,-0.0384,-0.0399,-0.0319,-0.0322,-0.0324,-0.0293,-0.0293,-0.0293,0,0,-0.0688,-0.067,-0.0694,-0.0688,-0.0675,-0.0659,-0.0661,-0.0636,-0.0626,-0.0614,-0.0572,-0.0545,-0.049,-0.0471,-0.0451,-0.0475,-0.0385,-0.0453,-0.0521,-0.0446,-0.0448,-0.0449,-0.0344,-0.0335,-0.0457,-0.0458,-0.0458,0,-0.0708,-0.0733,-0.0699,-0.0723,-0.0728,-0.0678,-0.0709,-0.0694,-0.0662,-0.0648,-0.0627,-0.0559,-0.0524,-0.0514,-0.0533,-0.0497,-0.042,-0.0496,-0.0458,-0.0457,-0.0457,-0.0348,-0.0337,-0.0463,-0.0462,-0.0462,-0.0461,0,-0.0772,-0.079,-0.0803,-0.0818,-0.0816,-0.0831,-0.0808,-0.0795,-0.0767,-0.074,-0.0712,-0.0664,-0.0617,-0.061,-0.0586,-0.057,-0.0503,-0.0477,-0.0441,-0.0466,-0.0349,-0.0336,-0.0471,-0.0469,-0.0467,-0.0466,0,0,-0.0824,-0.0847,-0.0851,-0.0869,-0.0868,-0.0869,-0.0886,-0.0874,-0.0858,-0.083,-0.0803,-0.0793,-0.0739,-0.0716,-0.0672,-0.0634,-0.0567,-0.0566,-0.056,-0.0473,-0.0364,-0.0294,-0.0271,-0.0524,-0.0523,-0.0522,-0.0275,0,-0.0886,-0.0951,-0.0944,-0.0995,-0.1024,-0.0984,-0.0994,-0.097,-0.0925,-0.0875,-0.083,-0.0782,-0.0785,-0.0746,-0.0719,-0.059,-0.0539,-0.0634,-0.0344,-0.0335,-0.028,-0.0257,-0.0226,-0.0003,-0.0261,-0.0259,-0.0257,0,-0.0954,-0.0987,-0.1057,-0.1071,-0.1077,-0.1094,-0.1071,-0.107,-0.0994,-0.0947,-0.09,-0.0824,-0.0771,-0.0755,-0.0592,-0.0642,-0.0527,-0.044,-0.0426,-0.0321,-0.0241,-0.0022,0.0034,0.0139,-0.0235,-0.0236,-0.0238,0,-0.1006,-0.1058,-0.1114,-0.1126,-0.1139,-0.1149,-0.1143,-0.1091,-0.106,-0.0973,-0.0905,-0.0835,-0.0745,-0.064,-0.0472,-0.0511,-0.0253,-0.0265,-0.0098,-0.0088,0.0012,0.0027,0.0189,-0.0153,-0.0154,-0.0155,-0.0155,0,-0.1072,-0.1111,-0.1139,-0.117,-0.1204,-0.1194,-0.119,-0.1161,-0.1084,-0.1017,-0.0939,-0.0842,-0.071,-0.0543,-0.0434,-0.0202,-0.0207,-0.0101,-0.0026,-0.002,-0.0012,0.0143,0.0178,-0.0145,-0.0147,-0.0149,-0.0151,0,-0.1116,-0.1142,-0.1199,-0.1228,-0.1232,-0.1252,-0.1219,-0.1197,-0.1119,-0.1018,-0.0979,-0.0803,-0.058,-0.0423,-0.0187,-0.011,0.0173,0.016,0.0171,0.024,0.0444,0.0471,0.0717,0.0817,0.0375,0.0378,0.0381,0,-0.1143,-0.1184,-0.1236,-0.1257,-0.1271,-0.1284,-0.128,-0.1226,-0.1176,-0.0981,-0.0918,-0.0676,-0.0478,-0.0103,0.0082,0.0326,0.0368,0.048,0.0372,0.047,0.0556,0.0551,0.0615,0.0491,0.0495,0.0497,0.0499,0,-0.1186,-0.1205,-0.1246,-0.1294,-0.1313,-0.1318,-0.1295,-0.1249,-0.1143,-0.1018,-0.0782,-0.0601,-0.0228,0.0081,0.0375,0.0489,0.0566,0.0542,0.0644,0.0655,0.0663,0.079,0.0334,0.0523,0.0521,0.0519,0.0518,0.0517,-0.1197,-0.1234,-0.1281,-0.132,-0.1342,-0.1328,-0.1293,-0.1212,-0.1094,-0.0843,-0.0691,-0.0336,0.0042,0.0471,0.0614,0.0873,0.0808,0.0898,0.0931,0.0923,0.098,0.0581,0.0838,0.0838,0.0837,0.0837,0.0836,0,-0.1204,-0.1245,-0.1294,-0.1337,-0.1352,-0.1355,-0.1281,-0.1192,-0.1011,-0.0726,-0.0469,0.0085,0.0443,0.0767,0.1102,0.1235,0.1243,0.1284,0.127,0.1323,0.0989,0.095,0.1241,0.124,0.124,0.124,0.124,0.124,-0.1205,-0.1256,-0.129,-0.1325,-0.1344,-0.1303,-0.1241,-0.1073,-0.084,-0.0378,0.0029,0.0358,0.077,0.1198,0.1506,0.1537,0.1664,0.164,0.1728,0.1457,0.1421,0.1387,0.1358,0.173,0.173,0.2039,0.2042,0.2044]}],[{"header":{"parameterUnit":"m.s-1","parameterCategory":2,"la1":30.2991,"la2":30.254,"lo1":-89.0895,"lo2":-89.0444,"dy":0.0017,"dx":0.0017,"nx":28,"ny":28,"refTime":"2024-05-09T21:00:00:Z","depth":"2","parameterNumber":2,"parameterNumberName":"U-component_of_CURRENTS"},"data":[0,0,0,0,0,0,0,0,0,0,0,0,0,0,0,0,0,0,0,0,0,0,0,0,0,0,0,0,0,0,0,0,0,0,0,0,0,0,0,0,0,0,0,0,0,0,0,0,0,0,0,0,0,0,0,0,0,0,-0.2236,-0.2237,0,-0.224,-0.224,-0.224,-0.2224,-0.2224,-0.2223,-0.2223,-0.2201,-0.22,-0.22,0,0,0,0,0,0,0,0,0,0,0,0,0,-0.2198,-0.2198,-0.2236,-0.2237,-0.2237,-0.2241,-0.224,-0.224,-0.2224,-0.2224,-0.2223,-0.2223,-0.2201,-0.22,-0.22,0,0,0,0,0,0,0,0,0,0,0,0,0,-0.2207,-0.2198,-0.2236,-0.2231,-0.2231,-0.2241,-0.224,-0.224,-0.2224,-0.2224,-0.2223,-0.2223,-0.2201,-0.22,-0.22,-0.2205,0,0,-0.2198,-0.2198,0,0,0,0,0,0,0,0,-0.2207,-0.2208,-0.2232,-0.2231,-0.2231,-0.2233,-0.2219,-0.2228,-0.2224,-0.2224,-0.2223,-0.2223,-0.2211,-0.221,-0.2208,-0.2204,-0.2203,-0.2198,-0.2198,-0.2198,-0.2198,0,0,0,0,0,0,0,-0.2206,-0.2208,-0.2236,-0.2232,-0.2232,-0.2223,-0.2223,-0.222,-0.2217,-0.2224,-0.2224,-0.2228,-0.221,-0.2209,-0.2208,-0.2202,-0.2198,-0.2198,-0.2197,-0.2197,-0.2189,-0.2189,0,0,0,0,0,0,-0.2212,-0.2208,-0.2236,-0.2236,-0.222,-0.2224,-0.2225,-0.2231,-0.2218,-0.2217,-0.2228,-0.2227,-0.221,-0.2208,-0.2207,-0.2215,-0.2198,-0.2197,-0.2197,-0.2189,-0.2189,-0.2189,0,0,0,0,0,0,-0.2211,-0.2214,-0.2235,-0.2223,-0.2226,-0.2225,-0.2233,-0.2232,-0.2234,-0.2222,-0.2219,-0.2233,-0.221,-0.2207,-0.2204,-0.2214,-0.2197,-0.2196,-0.2189,-0.2189,-0.2189,-0.2229,0,0,0,0,0,0,-0.221,-0.2214,-0.2217,-0.2224,-0.2227,-0.2247,-0.2233,-0.2232,-0.2238,-0.2237,-0.2225,-0.2222,-0.2209,-0.2205,-0.2204,-0.2213,-0.2196,-0.2189,-0.2189,-0.2189,-0.2227,-0.223,-0.2233,0,0,0,0,0,-0.2208,-0.2219,-0.2218,-0.2221,-0.2233,-0.2248,-0.2249,-0.2245,-0.2239,-0.2245,-0.2232,-0.2223,-0.2205,-0.2205,-0.2203,-0.2212,-0.2189,-0.2189,-0.2189,-0.2226,-0.223,-0.2233,0,0,0,0,0,0,-0.2204,-0.2218,-0.2217,-0.2231,-0.2241,-0.2247,-0.2251,-0.2251,-0.2246,-0.2242,-0.2227,-0.2223,-0.2225,-0.2211,-0.2212,-0.2209,-0.2194,-0.2194,-0.2223,-0.2226,-0.2229,-0.2223,-0.2196,0,0,0,0,0,-0.2205,-0.2214,-0.2229,-0.2238,-0.2245,-0.2249,-0.2254,-0.2255,-0.2254,-0.2252,-0.2244,-0.2232,-0.2225,-0.222,-0.2213,-0.2213,-0.2179,-0.2215,-0.2218,-0.222,-0.2213,-0.2185,-0.2184,-0.219,-0.219,-0.219,0,0,-0.2206,-0.2215,-0.222,-0.2238,-0.2242,-0.2258,-0.225,-0.2264,-0.2272,-0.225,-0.2255,-0.2245,-0.2228,-0.2227,-0.2226,-0.2217,-0.2197,-0.2221,-0.2223,-0.2214,-0.2185,-0.2184,-0.2184,-0.219,-0.219,-0.219,0,0,-0.2214,-0.2221,-0.2233,-0.2245,-0.2261,-0.2266,-0.2273,-0.2285,-0.2284,-0.2293,-0.2275,-0.2265,-0.2264,-0.2244,-0.2236,-0.2247,-0.2216,-0.2252,-0.2259,-0.2232,-0.2231,-0.223,-0.217,-0.2164,-0.225,-0.225,-0.225,0,-0.2214,-0.2227,-0.2239,-0.2256,-0.2262,-0.2273,-0.2285,-0.2295,-0.2302,-0.2299,-0.23,-0.2284,-0.2268,-0.2256,-0.2257,-0.2253,-0.2225,-0.2251,-0.2236,-0.2234,-0.2232,-0.2171,-0.2163,-0.2252,-0.2252,-0.2251,-0.2251,0,-0.2231,-0.2243,-0.2252,-0.2274,-0.2286,-0.2298,-0.2315,-0.2327,-0.2331,-0.2333,-0.2331,-0.2311,-0.2296,-0.2294,-0.2279,-0.2262,-0.224,-0.2247,-0.2229,-0.2234,-0.2169,-0.216,-0.2255,-0.2254,-0.2253,-0.2253,0,0,-0.2212,-0.2255,-0.2255,-0.2265,-0.2292,-0.2303,-0.2325,-0.2338,-0.2347,-0.2355,-0.2352,-0.2338,-0.2327,-0.2314,-0.2296,-0.227,-0.2225,-0.2255,-0.2253,-0.2197,-0.2142,-0.2052,-0.2033,-0.2239,-0.2238,-0.2237,-0.2096,0,-0.2213,-0.2243,-0.2264,-0.2285,-0.2297,-0.2319,-0.2338,-0.2354,-0.2363,-0.2368,-0.2351,-0.2344,-0.2336,-0.2326,-0.2302,-0.2249,-0.2206,-0.2261,-0.2144,-0.2139,-0.206,-0.2022,-0.1889,-0.1745,-0.2087,-0.2085,-0.2084,0,-0.2208,-0.2227,-0.2249,-0.2283,-0.2291,-0.231,-0.2331,-0.2353,-0.2369,-0.2376,-0.2373,-0.2362,-0.2323,-0.232,-0.2227,-0.2267,-0.2202,-0.2158,-0.2152,-0.2046,-0.2032,-0.1798,-0.1716,-0.2069,-0.207,-0.2071,-0.2072,0,-0.2164,-0.2209,-0.2221,-0.2234,-0.2282,-0.2294,-0.2319,-0.2347,-0.2353,-0.2373,-0.2369,-0.2349,-0.2315,-0.2262,-0.2173,-0.22,-0.206,-0.2085,-0.1934,-0.1926,-0.1775,-0.1755,-0.2005,-0.2005,-0.2005,-0.2005,-0.2006,0,-0.2137,-0.2144,-0.2206,-0.2209,-0.2223,-0.2272,-0.2284,-0.2315,-0.2341,-0.2325,-0.2362,-0.2324,-0.2302,-0.2225,-0.216,-0.2003,-0.2044,-0.191,-0.1881,-0.1783,-0.1766,-0.2028,-0.2033,-0.2,-0.2001,-0.2002,-0.2003,0,-0.2068,-0.2115,-0.2129,-0.2184,-0.2198,-0.2206,-0.225,-0.2255,-0.2305,-0.2281,-0.228,-0.2282,-0.2177,-0.2126,-0.2011,-0.1954,-0.1837,-0.177,-0.164,-0.1598,-0.1722,-0.1731,-0.1583,-0.1579,-0.1575,-0.1572,-0.1569,0,-0.2031,-0.2034,-0.2087,-0.2088,-0.2107,-0.2134,-0.2141,-0.2213,-0.2211,-0.2225,-0.219,-0.2125,-0.2026,-0.1846,-0.173,-0.1578,-0.1681,-0.1393,-0.142,-0.1691,-0.1678,-0.1692,-0.1705,-0.1225,-0.122,-0.1216,-0.1212,0,-0.1941,-0.1966,-0.1975,-0.1979,-0.199,-0.2004,-0.2024,-0.202,-0.2078,-0.2053,-0.1983,-0.1914,-0.176,-0.1544,-0.1393,-0.1303,-0.1417,-0.1299,-0.1595,-0.1366,-0.1345,-0.1336,-0.1362,-0.1174,-0.1178,-0.1181,-0.1183,-0.1184,-0.1855,-0.1838,-0.1847,-0.184,-0.1857,-0.1841,-0.1794,-0.1815,-0.1775,-0.1693,-0.1728,-0.1557,-0.1515,-0.1177,-0.1074,-0.0995,-0.1099,-0.1061,-0.1078,-0.1098,-0.1095,-0.1071,-0.0845,-0.0846,-0.0848,-0.0849,-0.0851,0,-0.1719,-0.171,-0.1701,-0.168,-0.1638,-0.1697,-0.1675,-0.1593,-0.1481,-0.1431,-0.1333,-0.11,-0.0942,-0.0901,-0.0707,-0.067,-0.07,-0.065,-0.0704,-0.074,-0.0773,-0.0759,-0.0416,-0.0415,-0.0414,-0.0413,0,0,-0.164,-0.1575,-0.1572,-0.1456,-0.1442,-0.1326,-0.128,-0.1185,-0.1112,-0.0942,-0.083,-0.0849,-0.0847,-0.0627,-0.0581,-0.0467,-0.0604,-0.0433,-0.0776,-0.0874,-0.0906,-0.0994,-0.101,0,0,0,0,0]},{"header":{"parameterUnit":"m.s-1","parameterCategory":2,"la1":30.2991,"la2":30.254,"lo1":-89.0895,"lo2":-89.0444,"dy":0.0017,"dx":0.0017,"nx":28,"ny":28,"refTime":"2024-05-09T21:00:00:Z","depth":"2","parameterNumber":3,"parameterNumberName":"V-component_of_CURRENTS"},"data":[0,0,0,0,0,0,0,0,0,0,0,0,0,0,0,0,0,0,0,0,0,0,0,0,0,0,0,0,0,0,0,0,0,0,0,0,0,0,0,0,0,0,0,0,0,0,0,0,0,0,0,0,0,0,0,0,0,0,-0.0507,-0.0507,0,-0.0478,-0.0478,-0.0477,-0.0455,-0.0455,-0.0455,-0.0455,-0.0368,-0.0366,-0.0364,0,0,0,0,0,0,0,0,0,0,0,0,0,-0.0502,-0.0503,-0.0507,-0.0507,-0.0507,-0.0478,-0.0478,-0.0477,-0.0455,-0.0455,-0.0455,-0.0454,-0.0369,-0.0366,-0.0364,0,0,0,0,0,0,0,0,0,0,0,0,0,-0.0491,-0.0503,-0.0507,-0.0493,-0.0491,-0.0478,-0.0478,-0.0477,-0.0455,-0.0455,-0.0455,-0.0454,-0.037,-0.0367,-0.0363,-0.0348,0,0,-0.0354,-0.0352,0,0,0,0,0,0,0,0,-0.0492,-0.0491,-0.0495,-0.0494,-0.0492,-0.0471,-0.0444,-0.0431,-0.0455,-0.0468,-0.0455,-0.0454,-0.0398,-0.0392,-0.0387,-0.0344,-0.034,-0.0353,-0.0351,-0.035,-0.0349,0,0,0,0,0,0,0,-0.0493,-0.0492,-0.0495,-0.0495,-0.0493,-0.0473,-0.0472,-0.0442,-0.0433,-0.0467,-0.0465,-0.0463,-0.0396,-0.039,-0.0385,-0.0339,-0.0353,-0.035,-0.0348,-0.0347,-0.0265,-0.0265,0,0,0,0,0,0,-0.05,-0.0493,-0.0496,-0.0494,-0.0492,-0.0474,-0.0472,-0.0477,-0.0434,-0.0428,-0.0464,-0.0462,-0.0396,-0.0388,-0.0381,-0.0354,-0.035,-0.0347,-0.0345,-0.0265,-0.0265,-0.0264,0,0,0,0,0,0,-0.0501,-0.0501,-0.0497,-0.0493,-0.0491,-0.0475,-0.048,-0.0477,-0.0473,-0.0433,-0.0425,-0.0463,-0.0395,-0.0386,-0.0359,-0.0351,-0.0345,-0.0342,-0.0265,-0.0265,-0.0265,-0.0304,0,0,0,0,0,0,-0.0501,-0.0502,-0.0509,-0.0494,-0.0492,-0.0495,-0.048,-0.0476,-0.0472,-0.047,-0.043,-0.0422,-0.0395,-0.0364,-0.0356,-0.0346,-0.034,-0.0266,-0.0265,-0.0265,-0.0303,-0.0305,-0.0306,0,0,0,0,0,-0.0501,-0.0515,-0.051,-0.051,-0.0503,-0.0495,-0.0493,-0.0479,-0.0472,-0.0474,-0.0446,-0.0423,-0.0355,-0.0361,-0.0351,-0.0341,-0.0266,-0.0265,-0.0265,-0.0302,-0.0304,-0.0306,0,0,0,0,0,0,-0.0517,-0.0513,-0.0508,-0.052,-0.051,-0.0492,-0.0494,-0.0483,-0.0464,-0.0462,-0.0423,-0.0413,-0.0386,-0.0359,-0.0367,-0.0316,-0.0305,-0.0302,-0.0336,-0.0338,-0.034,-0.0338,-0.0337,0,0,0,0,0,-0.0524,-0.0534,-0.0522,-0.0531,-0.0529,-0.0512,-0.0507,-0.0499,-0.0479,-0.0472,-0.0443,-0.0408,-0.0376,-0.0355,-0.0327,-0.0298,-0.0259,-0.0284,-0.0286,-0.0288,-0.0279,-0.0222,-0.0218,-0.0263,-0.0263,-0.0263,0,0,-0.0533,-0.0532,-0.0538,-0.0535,-0.0527,-0.0528,-0.0509,-0.0508,-0.0502,-0.0463,-0.0447,-0.0418,-0.0372,-0.0344,-0.0328,-0.0319,-0.0254,-0.0287,-0.0289,-0.0279,-0.0221,-0.0216,-0.0212,-0.0262,-0.0262,-0.0262,0,0,-0.0558,-0.0555,-0.0572,-0.0567,-0.056,-0.0544,-0.0546,-0.053,-0.0516,-0.0499,-0.0467,-0.043,-0.0391,-0.0348,-0.0323,-0.0315,-0.0272,-0.031,-0.031,-0.0255,-0.0251,-0.0247,-0.0194,-0.0184,-0.0305,-0.0305,-0.0305,0,-0.057,-0.0588,-0.0574,-0.0587,-0.0583,-0.0554,-0.0564,-0.0546,-0.0521,-0.0503,-0.05,-0.0425,-0.0388,-0.0334,-0.0331,-0.0317,-0.0284,-0.0308,-0.0258,-0.0253,-0.0247,-0.0194,-0.0183,-0.0307,-0.0306,-0.0306,-0.0306,0,-0.0607,-0.0618,-0.0626,-0.063,-0.0622,-0.0626,-0.0598,-0.0584,-0.0563,-0.0537,-0.0491,-0.044,-0.0392,-0.0373,-0.0348,-0.0292,-0.0279,-0.0274,-0.0254,-0.0245,-0.019,-0.0178,-0.0309,-0.0309,-0.0308,-0.0308,0,0,-0.064,-0.0651,-0.0654,-0.0661,-0.0645,-0.0644,-0.0626,-0.0596,-0.0581,-0.0542,-0.051,-0.0445,-0.0415,-0.0383,-0.0342,-0.0285,-0.022,-0.0266,-0.0263,-0.0217,-0.01,-0.008,-0.0064,-0.0211,-0.0209,-0.0207,-0.0076,0,-0.0672,-0.0709,-0.0696,-0.0714,-0.0727,-0.0689,-0.0678,-0.0644,-0.0602,-0.0564,-0.049,-0.0451,-0.0419,-0.0397,-0.0335,-0.0251,-0.019,-0.0256,-0.0111,-0.0106,-0.0092,-0.005,-0.0065,0.0051,-0.0064,-0.0062,-0.0061,0,-0.0712,-0.073,-0.0763,-0.0761,-0.0762,-0.0764,-0.0729,-0.0713,-0.0641,-0.0609,-0.0543,-0.0489,-0.0395,-0.0379,-0.0219,-0.0267,-0.0185,-0.0117,-0.011,-0.0067,-0.0064,0.0026,0.0078,-0.004,-0.0042,-0.0043,-0.0045,0,-0.0753,-0.0771,-0.0799,-0.0802,-0.0797,-0.0797,-0.0784,-0.0731,-0.0707,-0.063,-0.0598,-0.0494,-0.043,-0.0321,-0.018,-0.02,-0.0003,-0.0014,0.0087,0.0089,0.0119,0.0121,0.0104,0.0104,0.0104,0.0103,0.0103,0,-0.0794,-0.0813,-0.0826,-0.0845,-0.0872,-0.0846,-0.0847,-0.0817,-0.0758,-0.0715,-0.0628,-0.0558,-0.0411,-0.0283,-0.0174,0.0002,0.0005,0.0106,0.0132,0.0105,0.0103,0.0055,0.0047,0.0108,0.0107,0.0106,0.0105,0,-0.0836,-0.0845,-0.0881,-0.0893,-0.0898,-0.0919,-0.0901,-0.0893,-0.083,-0.0766,-0.0741,-0.0589,-0.0415,-0.0263,-0.0061,0.0021,0.0174,0.0234,0.0192,0.0211,0.0225,0.0214,0.0357,0.0359,0.0361,0.0362,0.0364,0,-0.0862,-0.0889,-0.0928,-0.0952,-0.0962,-0.098,-0.0991,-0.0944,-0.0911,-0.0771,-0.0733,-0.0555,-0.0404,-0.011,0.007,0.0272,0.0255,0.0357,0.032,0.0244,0.0255,0.0241,0.0228,0.0348,0.0349,0.0349,0.035,0,-0.0907,-0.0925,-0.0956,-0.1011,-0.1039,-0.1057,-0.105,-0.1027,-0.094,-0.0859,-0.069,-0.0557,-0.0267,-0.0027,0.0211,0.0313,0.0316,0.0379,0.0339,0.0273,0.0243,0.025,0.0237,0.0357,0.0356,0.0356,0.0355,0.0355,-0.0936,-0.0974,-0.1016,-0.1062,-0.1096,-0.1102,-0.1085,-0.1032,-0.0957,-0.0773,-0.066,-0.0407,-0.0216,0.0168,0.0309,0.0433,0.042,0.044,0.0435,0.043,0.0393,0.0365,0.0496,0.0496,0.0496,0.0497,0.0497,0,-0.0962,-0.1002,-0.1054,-0.1104,-0.1134,-0.114,-0.1098,-0.103,-0.0905,-0.0716,-0.0529,-0.0248,0.0001,0.0202,0.0416,0.0516,0.0486,0.0516,0.0458,0.0451,0.0445,0.0406,0.0515,0.0515,0.0516,0.0516,0,0,-0.0976,-0.1031,-0.1058,-0.1114,-0.1141,-0.1127,-0.1084,-0.0955,-0.0791,-0.0563,-0.0355,-0.0147,0.0077,0.023,0.0342,0.0448,0.0417,0.0445,0.0419,0.0328,0.0321,0.0389,0.032,0,0,0,0,0]}],[{"header":{"parameterUnit":"m.s-1","parameterCategory":2,"la1":30.2991,"la2":30.254,"lo1":-89.0895,"lo2":-89.0444,"dy":0.0017,"dx":0.0017,"nx":28,"ny":28,"refTime":"2024-05-09T21:00:00:Z","depth":"4","parameterNumber":2,"parameterNumberName":"U-component_of_CURRENTS"},"data":[0,0,0,0,0,0,0,0,0,0,0,0,0,0,0,0,0,0,0,0,0,0,0,0,0,0,0,0,0,0,0,0,0,0,0,0,0,0,0,0,0,0,0,0,0,0,0,0,0,0,0,0,0,0,0,0,0,0,-0.1534,-0.1535,0,-0.1567,-0.1568,-0.1568,-0.1597,-0.1598,-0.1598,-0.1599,-0.1631,-0.1631,-0.1631,0,0,0,0,0,0,0,0,0,0,0,0,0,-0.147,-0.1471,-0.1534,-0.1535,-0.1536,-0.1567,-0.1568,-0.1568,-0.1597,-0.1598,-0.1598,-0.1599,-0.1631,-0.1631,-0.1631,0,0,0,0,0,0,0,0,0,0,0,0,0,-0.1498,-0.1471,-0.1534,-0.1556,-0.1558,-0.1567,-0.1568,-0.1568,-0.1597,-0.1598,-0.1599,-0.1599,-0.1631,-0.1631,-0.1632,-0.1618,0,0,-0.1633,-0.1633,0,0,0,0,0,0,0,0,-0.1496,-0.15,-0.1552,-0.1554,-0.1557,-0.1581,-0.1557,-0.1585,-0.1597,-0.158,-0.1599,-0.16,-0.1615,-0.1617,-0.1618,-0.162,-0.1621,-0.1633,-0.1633,-0.1634,-0.1634,0,0,0,0,0,0,0,-0.1494,-0.1498,-0.1545,-0.1552,-0.1556,-0.1554,-0.1559,-0.1562,-0.1591,-0.1581,-0.1584,-0.1591,-0.1616,-0.1617,-0.1619,-0.1622,-0.1633,-0.1634,-0.1634,-0.1634,-0.1668,-0.1669,0,0,0,0,0,0,-0.1495,-0.1497,-0.1544,-0.1546,-0.153,-0.1555,-0.1561,-0.1571,-0.1591,-0.1595,-0.159,-0.1592,-0.1616,-0.1618,-0.162,-0.1662,-0.1634,-0.1634,-0.1634,-0.1667,-0.1668,-0.1669,0,0,0,0,0,0,-0.1494,-0.1499,-0.1543,-0.1524,-0.153,-0.1556,-0.1567,-0.1571,-0.1601,-0.1598,-0.1602,-0.1619,-0.1617,-0.1619,-0.1643,-0.1661,-0.1634,-0.1635,-0.1667,-0.1668,-0.1668,-0.1709,0,0,0,0,0,0,-0.1492,-0.1498,-0.1516,-0.1524,-0.1531,-0.1566,-0.1566,-0.1571,-0.1603,-0.1607,-0.1624,-0.1626,-0.1618,-0.1642,-0.1644,-0.1662,-0.1635,-0.1666,-0.1667,-0.1668,-0.1707,-0.1711,-0.1715,0,0,0,0,0,-0.1489,-0.1505,-0.1516,-0.1523,-0.155,-0.1567,-0.1571,-0.159,-0.1604,-0.1619,-0.1631,-0.1627,-0.165,-0.1643,-0.1645,-0.1663,-0.1665,-0.1667,-0.1668,-0.1705,-0.1711,-0.1715,0,0,0,0,0,0,-0.1486,-0.151,-0.1522,-0.1546,-0.1565,-0.1574,-0.1593,-0.1606,-0.1627,-0.1639,-0.1636,-0.1638,-0.1665,-0.1658,-0.165,-0.1675,-0.1657,-0.1658,-0.1684,-0.1689,-0.1693,-0.1683,-0.1636,0,0,0,0,0,-0.1493,-0.1514,-0.1534,-0.1555,-0.1568,-0.1586,-0.16,-0.1615,-0.163,-0.1642,-0.1654,-0.1663,-0.1666,-0.1675,-0.1678,-0.1693,-0.1667,-0.1704,-0.1708,-0.1712,-0.1704,-0.1692,-0.1693,-0.1673,-0.1673,-0.1673,0,0,-0.1499,-0.1515,-0.1529,-0.1557,-0.1573,-0.1592,-0.1597,-0.1628,-0.1646,-0.1641,-0.1677,-0.1682,-0.1674,-0.169,-0.1701,-0.1691,-0.1702,-0.1714,-0.1717,-0.1706,-0.1693,-0.1695,-0.1697,-0.1674,-0.1674,-0.1674,0,0,-0.1509,-0.1536,-0.1555,-0.1574,-0.1606,-0.1615,-0.1632,-0.1659,-0.1677,-0.1708,-0.1704,-0.1718,-0.1738,-0.1725,-0.1721,-0.1748,-0.1726,-0.176,-0.1771,-0.176,-0.1761,-0.1762,-0.1722,-0.1719,-0.176,-0.176,-0.176,0,-0.1516,-0.154,-0.1563,-0.1584,-0.16,-0.163,-0.1649,-0.1669,-0.1702,-0.1715,-0.1729,-0.1751,-0.1747,-0.1748,-0.1754,-0.1756,-0.174,-0.1755,-0.1764,-0.1765,-0.1765,-0.1724,-0.172,-0.1762,-0.1762,-0.1761,-0.1761,0,-0.1531,-0.156,-0.1574,-0.1608,-0.1629,-0.1653,-0.1681,-0.1713,-0.1744,-0.1757,-0.1788,-0.1785,-0.1793,-0.1797,-0.1783,-0.1785,-0.1768,-0.1773,-0.1752,-0.1769,-0.1725,-0.172,-0.1765,-0.1764,-0.1764,-0.1763,0,0,-0.1512,-0.1573,-0.1579,-0.1602,-0.1645,-0.1662,-0.17,-0.173,-0.1759,-0.1793,-0.1816,-0.1821,-0.1828,-0.1822,-0.1814,-0.18,-0.1781,-0.179,-0.1789,-0.1748,-0.174,-0.1623,-0.1606,-0.1798,-0.1797,-0.1797,-0.1705,0,-0.1515,-0.1556,-0.1585,-0.1626,-0.1647,-0.1687,-0.1718,-0.1754,-0.1786,-0.1819,-0.1823,-0.1844,-0.1836,-0.1847,-0.1833,-0.1799,-0.1773,-0.1804,-0.173,-0.1727,-0.1619,-0.1598,-0.1796,-0.1701,-0.17,-0.1699,-0.1698,0,-0.1508,-0.1538,-0.158,-0.1638,-0.1653,-0.1686,-0.1741,-0.1773,-0.1817,-0.1844,-0.1867,-0.1875,-0.1861,-0.1859,-0.1802,-0.1828,-0.1782,-0.1751,-0.1747,-0.1617,-0.16,-0.1682,-0.1689,-0.169,-0.1691,-0.1691,-0.1692,0,-0.1466,-0.153,-0.1566,-0.1586,-0.1657,-0.169,-0.173,-0.1783,-0.1809,-0.1861,-0.1879,-0.1883,-0.1877,-0.1843,-0.1777,-0.1797,-0.1702,-0.1721,-0.1565,-0.1556,-0.1675,-0.1675,-0.167,-0.167,-0.167,-0.167,-0.167,0,-0.1435,-0.1467,-0.156,-0.1576,-0.1622,-0.1682,-0.1731,-0.1775,-0.1829,-0.183,-0.1888,-0.1866,-0.1875,-0.1825,-0.1775,-0.1637,-0.1697,-0.1545,-0.152,-0.1693,-0.1696,-0.167,-0.1671,-0.1667,-0.1667,-0.1668,-0.1669,0,-0.1372,-0.1437,-0.1483,-0.1573,-0.1603,-0.1637,-0.1722,-0.1743,-0.1815,-0.1816,-0.183,-0.1847,-0.1767,-0.1746,-0.1667,-0.1604,-0.1509,-0.1446,-0.1604,-0.1595,-0.1371,-0.1376,-0.126,-0.1255,-0.1251,-0.1247,-0.1244,0,-0.1338,-0.136,-0.1464,-0.149,-0.1534,-0.16,-0.1628,-0.1719,-0.1727,-0.1764,-0.1733,-0.1703,-0.1685,-0.1474,-0.1481,-0.1374,-0.1356,-0.1314,-0.136,-0.1338,-0.1327,-0.1339,-0.1349,-0.1237,-0.1236,-0.1235,-0.1234,0,-0.1263,-0.1319,-0.1353,-0.1405,-0.1449,-0.1488,-0.1535,-0.1531,-0.1599,-0.1682,-0.1579,-0.1521,-0.1423,-0.1357,-0.1285,-0.1216,-0.1354,-0.127,-0.1279,-0.1322,-0.131,-0.1306,-0.1321,-0.1219,-0.1221,-0.1223,-0.1224,0,-0.1201,-0.1207,-0.1258,-0.129,-0.1343,-0.1337,-0.139,-0.1374,-0.1395,-0.1446,-0.1393,-0.136,-0.1382,-0.1268,-0.1197,-0.1127,-0.111,-0.109,-0.1108,-0.1125,-0.1125,-0.1093,-0.0891,0,0,0,0,0,-0.1124,-0.1109,-0.1131,-0.1148,-0.1198,-0.122,-0.1295,-0.1348,-0.1415,-0.1297,-0.1345,-0.1242,-0.1133,-0.1128,-0.1019,-0.1131,-0.112,-0.1003,-0.111,-0.1137,-0.1154,-0.1168,0,0,0,0,0,0,-0.1065,-0.1079,-0.1081,-0.1019,-0.1003,-0.1027,-0.107,-0.1125,-0.1078,-0.1153,-0.1094,-0.1157,-0.1066,-0.1147,-0.0981,-0.0979,-0.1021,-0.1003,-0.0999,-0.1128,-0.1143,-0.1157,-0.1177,0,0,0,0,0]},{"header":{"parameterUnit":"m.s-1","parameterCategory":2,"la1":30.2991,"la2":30.254,"lo1":-89.0895,"lo2":-89.0444,"dy":0.0017,"dx":0.0017,"nx":28,"ny":28,"refTime":"2024-05-09T21:00:00:Z","depth":"4","parameterNumber":3,"parameterNumberName":"V-component_of_CURRENTS"},"data":[0,0,0,0,0,0,0,0,0,0,0,0,0,0,0,0,0,0,0,0,0,0,0,0,0,0,0,0,0,0,0,0,0,0,0,0,0,0,0,0,0,0,0,0,0,0,0,0,0,0,0,0,0,0,0,0,0,0,-0.0363,-0.0363,0,-0.0358,-0.0358,-0.0358,-0.0357,-0.0357,-0.0357,-0.0357,-0.0312,-0.0311,-0.0309,0,0,0,0,0,0,0,0,0,0,0,0,0,-0.0338,-0.0339,-0.0363,-0.0363,-0.0363,-0.0358,-0.0358,-0.0358,-0.0357,-0.0357,-0.0357,-0.0357,-0.0312,-0.0311,-0.0309,0,0,0,0,0,0,0,0,0,0,0,0,0,-0.0342,-0.0339,-0.0363,-0.0363,-0.0362,-0.0358,-0.0358,-0.0358,-0.0357,-0.0357,-0.0357,-0.0357,-0.0313,-0.0311,-0.0309,-0.0294,0,0,-0.0303,-0.0302,0,0,0,0,0,0,0,0,-0.0342,-0.0343,-0.0363,-0.0363,-0.0363,-0.0359,-0.0332,-0.0335,-0.0357,-0.0358,-0.0357,-0.0357,-0.0324,-0.0321,-0.032,-0.0292,-0.029,-0.0303,-0.0302,-0.0301,-0.03,0,0,0,0,0,0,0,-0.0342,-0.0343,-0.0361,-0.0363,-0.0363,-0.0351,-0.0352,-0.0333,-0.0339,-0.0358,-0.0358,-0.0359,-0.0324,-0.0322,-0.0318,-0.0289,-0.0303,-0.0301,-0.03,-0.0299,-0.0234,-0.0233,0,0,0,0,0,0,-0.0345,-0.0343,-0.0361,-0.036,-0.0353,-0.0351,-0.0352,-0.0359,-0.034,-0.0338,-0.0359,-0.0359,-0.0325,-0.0321,-0.0317,-0.0288,-0.0301,-0.0299,-0.0298,-0.0234,-0.0234,-0.0233,0,0,0,0,0,0,-0.0345,-0.0347,-0.0361,-0.0352,-0.0353,-0.0352,-0.036,-0.0359,-0.0364,-0.0341,-0.0338,-0.0365,-0.0325,-0.032,-0.0305,-0.0287,-0.0298,-0.0296,-0.0235,-0.0234,-0.0233,-0.0237,0,0,0,0,0,0,-0.0344,-0.0347,-0.0357,-0.0352,-0.0353,-0.0363,-0.0359,-0.0359,-0.0364,-0.0364,-0.0345,-0.0341,-0.0324,-0.0308,-0.0303,-0.0284,-0.0295,-0.0236,-0.0235,-0.0234,-0.0237,-0.0236,-0.0235,0,0,0,0,0,-0.0344,-0.0355,-0.0357,-0.036,-0.0366,-0.0363,-0.0363,-0.0362,-0.0364,-0.0367,-0.0354,-0.0342,-0.0297,-0.0306,-0.0301,-0.0281,-0.0236,-0.0235,-0.0234,-0.0238,-0.0236,-0.0235,0,0,0,0,0,0,-0.0349,-0.0356,-0.0358,-0.0372,-0.037,-0.0364,-0.0368,-0.0367,-0.036,-0.0362,-0.0341,-0.0335,-0.0315,-0.0299,-0.031,-0.0258,-0.0262,-0.0259,-0.0267,-0.0265,-0.0264,-0.0258,-0.0293,0,0,0,0,0,-0.0355,-0.0367,-0.0366,-0.0378,-0.0379,-0.0375,-0.0376,-0.0376,-0.0368,-0.0366,-0.0351,-0.033,-0.0303,-0.0288,-0.027,-0.0244,-0.0223,-0.0225,-0.0224,-0.0223,-0.0213,-0.0165,-0.0158,-0.0229,-0.0229,-0.0229,0,0,-0.0361,-0.0366,-0.0373,-0.038,-0.0379,-0.0379,-0.0376,-0.0381,-0.0374,-0.036,-0.0349,-0.0332,-0.0298,-0.027,-0.0257,-0.0255,-0.0195,-0.0221,-0.0221,-0.0211,-0.0163,-0.0156,-0.015,-0.0228,-0.0228,-0.0228,0,0,-0.0373,-0.0383,-0.0395,-0.0395,-0.0398,-0.039,-0.0393,-0.039,-0.0383,-0.0372,-0.0353,-0.0322,-0.0298,-0.0257,-0.0234,-0.0213,-0.0197,-0.0213,-0.0193,-0.0147,-0.0141,-0.0135,-0.0116,-0.0108,-0.0205,-0.0205,-0.0205,0,-0.0379,-0.0395,-0.0396,-0.0404,-0.0404,-0.0395,-0.04,-0.0387,-0.0378,-0.0365,-0.0371,-0.0312,-0.0283,-0.0224,-0.0213,-0.0207,-0.0195,-0.0203,-0.0145,-0.0139,-0.0132,-0.0115,-0.0106,-0.0205,-0.0205,-0.0205,-0.0205,0,-0.0397,-0.0409,-0.0415,-0.0419,-0.0417,-0.0421,-0.0404,-0.0397,-0.0389,-0.0371,-0.0331,-0.0291,-0.0254,-0.0232,-0.0214,-0.015,-0.0162,-0.0156,-0.015,-0.0126,-0.0109,-0.01,-0.0205,-0.0205,-0.0205,-0.0205,0,0,-0.0411,-0.0425,-0.0429,-0.0437,-0.0428,-0.0431,-0.0409,-0.0386,-0.0377,-0.0347,-0.0323,-0.0253,-0.0237,-0.0209,-0.0176,-0.0122,-0.0067,-0.0121,-0.0118,-0.0104,0.0011,-0.0012,-0.0004,-0.0057,-0.0055,-0.0053,-0.0001,0,-0.0425,-0.045,-0.0443,-0.0455,-0.0465,-0.0445,-0.0432,-0.0408,-0.0381,-0.0356,-0.0289,-0.0261,-0.0226,-0.0214,-0.0149,-0.0095,-0.0041,-0.0083,-0.0011,-0.0009,-0.0034,0.0007,-0.0047,0.0006,0.0008,0.001,0.0011,0,-0.0443,-0.0459,-0.0481,-0.0487,-0.0489,-0.0492,-0.0473,-0.0456,-0.0402,-0.0383,-0.0325,-0.0289,-0.0202,-0.0186,-0.0059,-0.0094,-0.0037,0.0011,0.0014,0.0005,-0.0015,-0.0017,0.0027,0.0026,0.0025,0.0023,0.0022,0,-0.0467,-0.0482,-0.0504,-0.0508,-0.051,-0.0515,-0.0509,-0.0471,-0.0459,-0.04,-0.0388,-0.0291,-0.0251,-0.0156,-0.0055,-0.0061,0.0073,0.0074,0.0112,0.0109,0.0113,0.0107,0.0175,0.0175,0.0175,0.0175,0.0175,0,-0.0484,-0.0503,-0.0526,-0.0542,-0.0573,-0.0555,-0.0567,-0.0545,-0.0508,-0.0486,-0.041,-0.0368,-0.024,-0.0152,-0.0061,0.0048,0.0069,0.0127,0.0133,0.0107,0.0099,0.0118,0.0111,0.0177,0.0176,0.0176,0.0176,0,-0.0506,-0.052,-0.0555,-0.0578,-0.059,-0.0614,-0.0624,-0.0624,-0.0584,-0.055,-0.0535,-0.0423,-0.0305,-0.0185,-0.003,0.0031,0.014,0.0175,0.0124,0.0123,0.0143,0.0135,0.0219,0.0219,0.0219,0.0219,0.0219,0,-0.0519,-0.0542,-0.0596,-0.0627,-0.0644,-0.0676,-0.0697,-0.0672,-0.0656,-0.0574,-0.0553,-0.0441,-0.0355,-0.0151,-0.0032,0.0125,0.0154,0.019,0.0194,0.0156,0.0153,0.0145,0.0138,0.0218,0.0218,0.0218,0.0218,0,-0.0542,-0.0571,-0.0604,-0.0671,-0.0713,-0.0745,-0.076,-0.0749,-0.0696,-0.0673,-0.0545,-0.043,-0.0298,-0.0141,-0.0025,0.0093,0.0154,0.0189,0.0191,0.0195,0.0156,0.0152,0.0145,0.0218,0.0218,0.0218,0.0218,0,-0.0564,-0.0599,-0.065,-0.0702,-0.0759,-0.078,-0.0787,-0.0745,-0.0721,-0.0612,-0.0572,-0.0415,-0.0323,-0.0158,-0.0046,0.0058,0.0087,0.0113,0.0119,0.012,0.0075,0.001,0.0046,0,0,0,0,0,-0.0575,-0.0613,-0.067,-0.0726,-0.0781,-0.0802,-0.0809,-0.0797,-0.0746,-0.0657,-0.0604,-0.047,-0.0277,-0.0189,-0.0085,-0.0068,0.0081,0.0052,0.0108,0.0216,0.0217,0.0179,0,0,0,0,0,0,-0.0585,-0.0643,-0.0669,-0.0729,-0.0763,-0.0811,-0.0809,-0.0777,-0.0708,-0.064,-0.0528,-0.0466,-0.0276,-0.0334,-0.0087,-0.0057,-0.0013,0.0144,0.0146,0.0216,0.0217,0.0217,0.0178,0,0,0,0,0]}]]